Weather History for Greenville, NC

Change the Weather History Date:

Tuesday, February 19, 2013

  Actual Average Record
Temperature  
Mean Temperature 44 °F -  
Max Temperature 59 °F 56 °F 75 °F (1938)
Min Temperature 28 °F 35 °F 14 °F (1958)
Degree Days  
Heating Degree Days 22    
Moisture  
Dew Point 41 °F    
Average Humidity 78    
Maximum Humidity 100    
Minimum Humidity 59    
Precipitation  
Precipitation 0.04 in - - ()
Sea Level Pressure  
Sea Level Pressure 30.06 in    
Wind  
Wind Speed 6 mph (SW)    
Max Wind Speed 28 mph    
Max Gust Speed 34 mph    
Visibility 10 miles    
Events Rain    
Averages and records for this station are not official NWS values.
T = Trace of Precipitation, MM = Missing Value Source: NWS Daily Summary

Daily Weather History Graph

Daily Weather History Graph

Search for Another Location

Airport:

Trip Planner

Search our weather history database for the weather conditions in past years. The results will help you decide how hot, cold, wet, or windy it might be!

Date:

Astronomy

Feb. 19, 2013 Rise Set
Actual Time 6:51 AM EST 5:55 PM EST
Civil Twilight 6:25 AM EST 6:21 PM EST
Nautical Twilight 5:55 AM EST 6:51 PM EST
Astronomical Twilight 5:26 AM EST 7:20 PM EST
Moon 12:31 PM EST (2/19) 2:15 AM EST (2/19)
Length of Visible Light 11h 55m
Length of Day
11h 04m
Waxing Gibbous, 67% of the Moon is Illuminated
Feb 19
Waxing Gibbous
Feb 25
Full
Mar 4
Last Quarter
Mar 11
New
Mar 19
First Quarter

Hourly Weather History & Observations

Time (EST) Temp. Windchill Dew Point Humidity Pressure Visibility Wind Dir Wind Speed Gust Speed Precip Events Conditions
12:15 AM 35.6 °F 32.8 °F 24.8 °F 65% 30.31 in 10.0 mi South 3.5 mph - N/A   Clear
12:55 AM 35.6 °F - 24.8 °F 65% 30.30 in 10.0 mi Calm Calm - N/A   Clear
1:15 AM 35.6 °F 32.8 °F 26.6 °F 70% 30.28 in 10.0 mi SSE 3.5 mph - N/A   Clear
1:35 AM 33.8 °F - 26.6 °F 75% 30.28 in 10.0 mi Calm Calm - N/A   Clear
1:55 AM 33.8 °F 30.8 °F 26.6 °F 75% 30.26 in 10.0 mi SSE 3.5 mph - N/A   Clear
2:15 AM 32.0 °F - 26.6 °F 80% 30.26 in 10.0 mi Calm Calm - N/A   Clear
2:35 AM 32.0 °F - 26.6 °F 80% 30.25 in 10.0 mi Calm Calm - N/A   Clear
2:55 AM 32.0 °F - 26.6 °F 80% 30.24 in 10.0 mi Calm Calm - N/A   Clear
3:15 AM 32.0 °F - 28.4 °F 87% 30.24 in 10.0 mi Calm Calm - N/A   Clear
3:35 AM 32.0 °F - 28.4 °F 87% 30.23 in 10.0 mi Calm Calm - N/A   Clear
3:55 AM 32.0 °F - 28.4 °F 87% 30.22 in 10.0 mi Calm Calm - N/A   Clear
4:15 AM 30.2 °F 26.7 °F 28.4 °F 93% 30.21 in 10.0 mi East 3.5 mph - N/A   Clear
4:35 AM 32.0 °F - 28.4 °F 87% 30.20 in 10.0 mi Calm Calm - N/A   Clear
4:55 AM 32.0 °F - 28.4 °F 87% 30.19 in 10.0 mi Calm Calm - N/A   Clear
5:15 AM 28.4 °F - 28.4 °F 100% 30.18 in 10.0 mi Calm Calm - N/A   Scattered Clouds
5:35 AM 32.0 °F 28.7 °F 30.2 °F 93% 30.19 in 10.0 mi South 3.5 mph - N/A   Scattered Clouds
5:55 AM 39.2 °F 35.9 °F 33.8 °F 81% 30.18 in 10.0 mi South 4.6 mph - N/A   Clear
6:15 AM 41.0 °F 36.4 °F 35.6 °F 81% 30.16 in 10.0 mi South 6.9 mph - N/A   Clear
6:35 AM 41.0 °F 35.8 °F 35.6 °F 81% 30.15 in 10.0 mi South 8.1 mph - N/A   Clear
6:55 AM 41.0 °F 36.4 °F 35.6 °F 81% 30.16 in 10.0 mi South 6.9 mph - N/A   Clear
7:35 AM 42.8 °F 38.6 °F 37.4 °F 81% 30.16 in 10.0 mi SSW 6.9 mph - N/A   Clear
7:55 AM 44.6 °F 39.7 °F 39.2 °F 81% 30.16 in 10.0 mi SSW 9.2 mph - N/A   Clear
8:15 AM 46.4 °F 41.5 °F 39.2 °F 76% 30.16 in 10.0 mi South 10.4 mph - N/A   Clear
8:35 AM 48.2 °F - 41.0 °F 76% 30.15 in 10.0 mi South 9.2 mph - N/A   Scattered Clouds
8:55 AM 50.0 °F - 41.0 °F 71% 30.15 in 10.0 mi South 6.9 mph - N/A   Scattered Clouds
9:15 AM 50.0 °F - 41.0 °F 71% 30.13 in 10.0 mi South 8.1 mph - N/A   Scattered Clouds
9:35 AM 51.8 °F - 42.8 °F 71% 30.13 in 10.0 mi South 6.9 mph - N/A   Clear
9:55 AM 51.8 °F - 42.8 °F 71% 30.12 in 10.0 mi South 8.1 mph - N/A   Clear
10:15 AM 53.6 °F - 44.6 °F 72% 30.11 in 10.0 mi SSW 9.2 mph - N/A   Clear
10:35 AM 55.4 °F - 44.6 °F 67% 30.10 in 10.0 mi South 9.2 mph - N/A   Scattered Clouds
10:55 AM 57.2 °F - 44.6 °F 63% 30.09 in 10.0 mi SSW 8.1 mph - N/A   Mostly Cloudy
11:15 AM 59.0 °F - 44.6 °F 59% 30.08 in 10.0 mi SSW 10.4 mph - N/A   Mostly Cloudy
11:35 AM 55.4 °F - 48.2 °F 77% 30.06 in 10.0 mi SSW 8.1 mph - N/A   Mostly Cloudy
11:55 AM 59.0 °F - 48.2 °F 67% 30.05 in 10.0 mi SSW 10.4 mph - N/A   Scattered Clouds
12:15 PM 59.0 °F - 48.2 °F 67% 30.03 in 10.0 mi SSW 10.4 mph - N/A   Mostly Cloudy
12:35 PM 55.4 °F - 50.0 °F 82% 30.03 in 10.0 mi SSW 10.4 mph - 0.02 in Rain Light Rain
12:55 PM 55.4 °F - 50.0 °F 82% 30.03 in 10.0 mi SSW 12.7 mph - 0.03 in Rain Light Rain
1:35 PM 57.2 °F - 51.8 °F 82% 29.97 in 10.0 mi SSW 9.2 mph - N/A   Light Drizzle
1:55 PM 57.2 °F - 51.8 °F 82% 29.96 in 10.0 mi SW 8.1 mph 18.4 mph N/A   Overcast
2:15 PM 59.0 °F - 50.0 °F 72% 29.95 in 10.0 mi SW 10.4 mph 18.4 mph N/A   Overcast
2:35 PM 57.2 °F - 50.0 °F 77% 29.95 in 10.0 mi SW 10.4 mph 19.6 mph N/A   Overcast
2:55 PM 59.0 °F - 50.0 °F 72% 29.93 in 10.0 mi SW 11.5 mph 18.4 mph N/A   Overcast
3:15 PM 59.0 °F - 48.2 °F 67% 29.92 in 10.0 mi SW 13.8 mph 19.6 mph N/A   Overcast
3:35 PM 59.0 °F - 48.2 °F 67% 29.91 in 10.0 mi SW 15.0 mph 21.9 mph N/A   Overcast
3:55 PM 59.0 °F - 46.4 °F 63% 29.91 in 10.0 mi SW 13.8 mph 26.5 mph N/A   Overcast
4:15 PM 59.0 °F - 46.4 °F 63% 29.90 in 10.0 mi SW 13.8 mph 24.2 mph N/A   Overcast
4:35 PM 57.2 °F - 46.4 °F 67% 29.91 in 10.0 mi SW 27.6 mph 34.5 mph N/A   Overcast
4:55 PM 55.4 °F - 50.0 °F 82% 29.90 in 7.0 mi SW 13.8 mph 26.5 mph N/A   Overcast
5:15 PM 55.4 °F - 50.0 °F 82% 29.89 in 10.0 mi SW 16.1 mph 31.1 mph N/A   Overcast
5:35 PM 55.4 °F - 50.0 °F 82% 29.88 in 10.0 mi SW 16.1 mph 23.0 mph N/A   Overcast
5:55 PM 55.4 °F - 50.0 °F 82% 29.89 in 10.0 mi SW 13.8 mph 25.3 mph N/A   Overcast
6:15 PM 55.4 °F - 50.0 °F 82% 29.90 in 10.0 mi WSW 12.7 mph 24.2 mph N/A   Overcast
6:35 PM 55.4 °F - 51.8 °F 88% 29.90 in 10.0 mi WSW 12.7 mph 17.3 mph N/A   Overcast
7:35 PM 53.6 °F - 51.8 °F 94% 29.92 in 10.0 mi WSW 11.5 mph 19.6 mph 0.01 in   Mostly Cloudy
7:55 PM 53.6 °F - 50.0 °F 88% 29.92 in 10.0 mi WSW 8.1 mph 17.3 mph 0.01 in   Mostly Cloudy
8:15 PM 53.6 °F - 50.0 °F 88% 29.93 in 10.0 mi West 8.1 mph 16.1 mph N/A   Mostly Cloudy
8:55 PM 51.8 °F - 46.4 °F 82% 29.95 in 10.0 mi West 11.5 mph 16.1 mph N/A   Scattered Clouds
9:15 PM 51.8 °F - 46.4 °F 82% 29.95 in 10.0 mi West 9.2 mph - N/A   Scattered Clouds
9:35 PM 51.8 °F - 44.6 °F 76% 29.96 in 10.0 mi West 9.2 mph 16.1 mph N/A   Clear
9:55 PM 50.0 °F - 42.8 °F 76% 29.96 in 10.0 mi West 8.1 mph - N/A   Clear
10:15 PM 50.0 °F - 42.8 °F 76% 29.97 in 10.0 mi West 6.9 mph - N/A   Clear
10:35 PM 50.0 °F - 42.8 °F 76% 29.97 in 10.0 mi West 9.2 mph - N/A   Clear
10:55 PM 48.2 °F - 41.0 °F 76% 29.96 in 10.0 mi West 6.9 mph - N/A   Clear
11:15 PM 46.4 °F 42.4 °F 41.0 °F 81% 29.96 in 10.0 mi West 8.1 mph - N/A   Clear
11:35 PM 46.4 °F 42.9 °F 41.0 °F 81% 29.96 in 10.0 mi West 6.9 mph - N/A   Clear
11:55 PM 46.4 °F 42.9 °F 41.0 °F 81% 29.96 in 10.0 mi West 6.9 mph - N/A   Clear